Weather History for Council Bluffs, IA

Change the Weather History Date:

Sunday, October 21, 2012

  Actual Average Record
Temperature  
Mean Temperature 62 °F -  
Max Temperature 78 °F 60 °F 82 °F (2003)
Min Temperature 46 °F 41 °F 30 °F (1997)
Degree Days  
Heating Degree Days 3    
Growing Degree Days 12 (Base 50)    
Moisture  
Dew Point 53 °F    
Average Humidity 73    
Maximum Humidity 88    
Minimum Humidity 51    
Precipitation  
Precipitation 0.00 in - - ()
Sea Level Pressure  
Sea Level Pressure 29.75 in    
Wind  
Wind Speed 11 mph (SE)    
Max Wind Speed 16 mph    
Max Gust Speed 22 mph    
Visibility 10 miles    
Events      
Averages and records for this station are not official NWS values.
T = Trace of Precipitation, MM = Missing Value Source: NWS Daily Summary

Daily Weather History Graph

Daily Weather History Graph

Search for Another Location

Airport:

Trip Planner

Search our weather history database for the weather conditions in past years. The results will help you decide how hot, cold, wet, or windy it might be!

Date:

Astronomy

Oct. 21, 2012 Rise Set
Actual Time 7:42 AM CDT 6:32 PM CDT
Civil Twilight 7:13 AM CDT 7:00 PM CDT
Nautical Twilight 6:41 AM CDT 7:32 PM CDT
Astronomical Twilight 6:09 AM CDT 8:04 PM CDT
Moon 2:04 PM CDT (10/21) No Moon Set
Length of Visible Light 11h 46m
Length of Day
10h 50m
Waxing Crescent, 45% of the Moon is Illuminated
Oct 21
Waxing Crescent
Oct 21
First Quarter
Oct 29
Full
Nov 6
Last Quarter
Nov 13
New

Hourly Weather History & Observations

Time (CDT) Temp. Windchill Dew Point Humidity Pressure Visibility Wind Dir Wind Speed Gust Speed Precip Events Conditions
12:15 AM 50.0 °F - 41.0 °F 71% 29.75 in 10.0 mi SE 11.5 mph - N/A   Scattered Clouds
12:35 AM 50.0 °F - 41.0 °F 71% 29.74 in 10.0 mi SE 9.2 mph - N/A   Partly Cloudy
12:55 AM 50.0 °F - 42.8 °F 76% 29.74 in 10.0 mi SE 9.2 mph - N/A   Partly Cloudy
1:15 AM 50.0 °F - 42.8 °F 76% 29.74 in 10.0 mi SE 11.5 mph - N/A   Partly Cloudy
1:35 AM 50.0 °F - 42.8 °F 76% 29.74 in 10.0 mi South 9.2 mph - N/A   Scattered Clouds
1:55 AM 48.2 °F - 42.8 °F 82% 29.73 in 10.0 mi SE 11.5 mph - N/A   Mostly Cloudy
2:15 AM 48.2 °F - 42.8 °F 82% 29.73 in 10.0 mi SE 11.5 mph - N/A   Partly Cloudy
2:35 AM 48.2 °F - 42.8 °F 82% 29.73 in 10.0 mi SE 11.5 mph - N/A   Mostly Cloudy
2:55 AM 48.2 °F - 41.0 °F 76% 29.73 in 10.0 mi SE 11.5 mph - N/A   Mostly Cloudy
3:15 AM 48.2 °F - 42.8 °F 82% 29.73 in 10.0 mi SE 10.4 mph - N/A   Scattered Clouds
3:35 AM 48.2 °F - 42.8 °F 82% 29.73 in 10.0 mi SE 11.5 mph - N/A   Scattered Clouds
3:55 AM 48.2 °F - 42.8 °F 82% 29.72 in 10.0 mi SE 12.7 mph - N/A   Partly Cloudy
4:15 AM 48.2 °F - 42.8 °F 82% 29.72 in 10.0 mi SE 13.8 mph - N/A   Partly Cloudy
4:35 AM 48.2 °F - 42.8 °F 82% 29.72 in 10.0 mi SE 11.5 mph - N/A   Partly Cloudy
4:55 AM 48.2 °F - 42.8 °F 82% 29.72 in 10.0 mi SE 12.7 mph - N/A   Scattered Clouds
5:15 AM 48.2 °F - 42.8 °F 82% 29.72 in 10.0 mi SE 12.7 mph - N/A   Scattered Clouds
5:35 AM 48.2 °F - 42.8 °F 82% 29.72 in 10.0 mi SE 15.0 mph - N/A   Partly Cloudy
5:55 AM 48.2 °F - 42.8 °F 82% 29.72 in 10.0 mi SE 13.8 mph - N/A   Partly Cloudy
6:15 AM 48.2 °F - 42.8 °F 82% 29.73 in 10.0 mi SSE 13.8 mph - N/A   Partly Cloudy
6:35 AM 48.2 °F - 42.8 °F 82% 29.73 in 10.0 mi SSE 12.7 mph - N/A   Clear
6:55 AM 46.4 °F 41.5 °F 42.8 °F 87% 29.74 in 10.0 mi SE 10.4 mph - N/A   Clear
7:15 AM 46.4 °F 41.1 °F 42.8 °F 87% 29.74 in 10.0 mi SE 11.5 mph - N/A   Clear
7:35 AM 46.4 °F 41.1 °F 42.8 °F 87% 29.75 in 10.0 mi SE 11.5 mph - N/A   Clear
7:55 AM 46.4 °F 41.1 °F 42.8 °F 87% 29.75 in 10.0 mi SE 11.5 mph - N/A   Clear
8:15 AM 48.2 °F - 42.8 °F 82% 29.75 in 10.0 mi SSE 10.4 mph - N/A   Clear
8:35 AM 48.2 °F - 44.6 °F 87% 29.75 in 10.0 mi SE 10.4 mph - N/A   Clear
8:55 AM 50.0 °F - 44.6 °F 82% 29.77 in 10.0 mi SSE 11.5 mph - N/A   Clear
9:15 AM 51.8 °F - 46.4 °F 82% 29.77 in 10.0 mi SSE 10.4 mph - N/A   Clear
9:35 AM 53.6 °F - 46.4 °F 77% 29.77 in 10.0 mi SSE 10.4 mph - N/A   Clear
9:55 AM 53.6 °F - 46.4 °F 77% 29.77 in 10.0 mi SSE 11.5 mph - N/A   Clear
10:15 AM 55.4 °F - 48.2 °F 77% 29.78 in 10.0 mi SE 8.1 mph - N/A   Clear
10:35 AM 59.0 °F - 50.0 °F 72% 29.78 in 10.0 mi SSE 8.1 mph - N/A   Clear
10:55 AM 60.8 °F - 51.8 °F 72% 29.79 in 10.0 mi South 9.2 mph - N/A   Clear
11:15 AM 64.4 °F - 51.8 °F 64% 29.79 in 10.0 mi Variable 5.8 mph - N/A   Clear
11:35 AM 64.4 °F - 53.6 °F 68% 29.79 in 10.0 mi SSE 4.6 mph - N/A   Clear
11:55 AM 66.2 °F - 53.6 °F 64% 29.78 in 10.0 mi SE 5.8 mph - N/A   Clear
12:15 PM 69.8 °F - 55.4 °F 60% 29.77 in 10.0 mi South 6.9 mph - N/A   Clear
12:35 PM 69.8 °F - 57.2 °F 64% 29.77 in 10.0 mi South 9.2 mph - N/A   Clear
12:55 PM 71.6 °F - 57.2 °F 60% 29.76 in 10.0 mi SSE 8.1 mph - N/A   Clear
1:15 PM 71.6 °F - 59.0 °F 64% 29.76 in 10.0 mi SSE 5.8 mph 11.5 mph N/A   Clear
1:35 PM 73.4 °F - 59.0 °F 61% 29.75 in 10.0 mi SE 9.2 mph - N/A   Clear
1:55 PM 75.2 °F - 59.0 °F 57% 29.74 in 9.0 mi SSE 10.4 mph - N/A   Clear
2:15 PM 75.2 °F - 60.8 °F 61% 29.73 in 10.0 mi SSE 11.5 mph - N/A   Clear
2:35 PM 77.0 °F - 59.0 °F 54% 29.73 in 10.0 mi SSE 11.5 mph 18.4 mph N/A   Clear
2:55 PM 77.0 °F - 59.0 °F 54% 29.72 in 10.0 mi SE 15.0 mph - N/A   Clear
3:15 PM 78.8 °F - 59.0 °F 51% 29.71 in 10.0 mi SSE 16.1 mph 21.9 mph N/A   Clear
3:35 PM 78.8 °F - 59.0 °F 51% 29.71 in 10.0 mi SSE 16.1 mph - N/A   Clear
3:55 PM 78.8 °F - 59.0 °F 51% 29.71 in 10.0 mi SE 15.0 mph 20.7 mph N/A   Clear
4:15 PM 78.8 °F - 59.0 °F 51% 29.71 in 10.0 mi SSE 15.0 mph - N/A   Clear
4:35 PM 78.8 °F - 59.0 °F 51% 29.71 in 10.0 mi SE 13.8 mph - N/A   Clear
4:55 PM 78.8 °F - 60.8 °F 54% 29.71 in 10.0 mi SSE 12.7 mph 18.4 mph N/A   Clear
5:15 PM 78.8 °F - 60.8 °F 54% 29.71 in 10.0 mi SSE 12.7 mph - N/A   Clear
5:35 PM 77.0 °F - 60.8 °F 57% 29.72 in 10.0 mi SSE 10.4 mph - N/A   Clear
5:55 PM 75.2 °F - 60.8 °F 61% 29.72 in 10.0 mi SSE 8.1 mph - N/A   Clear
6:15 PM 75.2 °F - 60.8 °F 61% 29.73 in 10.0 mi SSE 9.2 mph - N/A   Mostly Cloudy
6:35 PM 73.4 °F - 60.8 °F 65% 29.73 in 10.0 mi SE 8.1 mph - N/A   Overcast
6:55 PM 73.4 °F - 62.6 °F 69% 29.74 in 10.0 mi SSE 10.4 mph - N/A   Overcast
7:15 PM 73.4 °F - 62.6 °F 69% 29.75 in 10.0 mi SSE 16.1 mph - N/A   Overcast
7:35 PM 71.6 °F - 62.6 °F 73% 29.76 in 10.0 mi South 13.8 mph - N/A   Overcast
7:55 PM 69.8 °F - 62.6 °F 78% 29.76 in 10.0 mi SSE 10.4 mph - N/A   Overcast
8:15 PM 69.8 °F - 62.6 °F 78% 29.77 in 10.0 mi SSE 10.4 mph - N/A   Overcast
8:35 PM 69.8 °F - 62.6 °F 78% 29.77 in 10.0 mi SSE 9.2 mph - N/A   Overcast
8:55 PM 68.0 °F - 62.6 °F 83% 29.77 in 10.0 mi SSE 5.8 mph - N/A   Overcast
9:15 PM 68.0 °F - 62.6 °F 83% 29.78 in 10.0 mi SSE 4.6 mph - N/A   Overcast
9:35 PM 68.0 °F - 62.6 °F 83% 29.79 in 9.0 mi SSE 4.6 mph - N/A   Overcast
9:55 PM 68.0 °F - 62.6 °F 83% 29.79 in 9.0 mi SE 6.9 mph - N/A   Overcast
10:15 PM 68.0 °F - 62.6 °F 83% 29.79 in 8.0 mi SE 6.9 mph - N/A   Overcast
10:35 PM 68.0 °F - 62.6 °F 83% 29.79 in 8.0 mi ESE 4.6 mph - N/A   Overcast
10:55 PM 68.0 °F - 62.6 °F 83% 29.79 in 8.0 mi ESE 6.9 mph - N/A   Overcast
11:15 PM 68.0 °F - 62.6 °F 83% 29.78 in 7.0 mi ESE 5.8 mph - N/A   Overcast
11:35 PM 66.2 °F - 62.6 °F 88% 29.78 in 8.0 mi SE 4.6 mph - N/A   Overcast
11:55 PM 68.0 °F - 62.6 °F 83% 29.78 in 8.0 mi SE 6.9 mph - N/A   Overcast